Location: Pasadena, ca
(34.1243°N, 118.1037°W)
Time: 01:26:56
(UTC-08:00)

OTV 5 (USA 277) - Pass Details

Date: 14 November 2017
Orbit: 404 x 417 km, 43.0° (Epoch: 07 September)

Event Time Altitude Azimuth Distance (km) Brightness Sun altitude
Exits shadow 05:18:58 14° 335° (NNW) 1,216 ? -13.8°
Maximum altitude 05:20:09 17° 1° (N) 1,109 ? -13.5°
Drops below altitude 10° 05:22:24 10° 45° (NE) 1,455 ? -13.1°
Sets 05:25:01 0° 67° (ENE) 2,315 ? -12.6°
